{"data":{"norad_id":69995,"epoch":"2026-09-20T04:04:37.714080Z","epoch_age_seconds":46291,"freshness":"FRESH","line1":"1 69995U 26159W   26263.16988095  .00031161  00000+0  57215-3 0  9990","line2":"2 69995  97.2854 104.9473 0001669  90.0208 270.1234 15.49198158 12399","mean_motion":15.49198158,"eccentricity":0.0001669,"inclination_deg":97.2854,"raan_deg":104.9473,"arg_perigee_deg":90.0208,"mean_anomaly_deg":270.1234,"bstar":0.00057215,"rev_number":1239,"period_min":92.951311138856,"perigee_km":417.93602667345,"apogee_km":420.20493453047,"semimajor_km":6797.207480602,"source":"CELESTRAK","updated_at":"2026-09-20T09:00:44.332122Z"}}